Weather History for Kenansville, NC

Change the Weather History Date:

Sunday, October 13, 2013

  Actual Average (KGSB) Record (KGSB)
Temperature  
Mean Temperature 68 °F -  
Max Temperature 71 °F 73 °F 87 °F (1997)
Min Temperature 64 °F 51 °F 41 °F (2000)
Cooling Degree Days 2    
Growing Degree Days 18 (Base 50)    
Moisture  
Dew Point 65 °F    
Average Humidity 91    
Maximum Humidity 97    
Minimum Humidity 80    
Precipitation  
Precipitation 0.00 in - - ()
Sea Level Pressure  
Sea Level Pressure 30.11 in    
Wind  
Wind Speed 6 mph (North)    
Max Wind Speed 12 mph    
Max Gust Speed -    
Visibility 8 miles    
Events Rain    
Averages and records for this station are not official NWS values.
T = Trace of Precipitation, MM = Missing Value Source: NWS Daily Summary

Daily Weather History Graph

Daily Weather History Graph

Search for Another Location

Airport:

Trip Planner

Search our weather history database for the weather conditions in past years. The results will help you decide how hot, cold, wet, or windy it might be!

Date:

Astronomy

Oct. 13, 2013 Rise Set
Actual Time 7:16 AM EDT 6:39 PM EDT
Civil Twilight 6:50 AM EDT 7:04 PM EDT
Nautical Twilight 6:21 AM EDT 7:34 PM EDT
Astronomical Twilight 5:52 AM EDT 8:03 PM EDT
Moon 3:18 PM EDT (10/13) 1:36 AM EDT (10/13)
Length of Visible Light 12h 13m
Length of Day
11h 22m
Waxing Gibbous, 69% of the Moon is Illuminated
Oct 13
Waxing Gibbous
Oct 18
Full
Oct 26
Last Quarter
Nov 3
New
Nov 10
First Quarter

Hourly Weather History & Observations

Time (EDT) Temp. Dew Point Humidity Pressure Visibility Wind Dir Wind Speed Gust Speed Precip Events Conditions
12:15 AM 65.8 °F 64.4 °F 95% 30.06 in 7.0 mi NNW 3.5 mph - N/A   Overcast
12:35 AM 65.7 °F 64.4 °F 96% 30.05 in 3.0 mi NNW 3.5 mph - N/A   Overcast
12:55 AM 65.5 °F 64.4 °F 96% 30.05 in 4.0 mi North 5.8 mph - N/A   Overcast
1:15 AM 65.5 °F 64.4 °F 96% 30.05 in 5.0 mi North 4.6 mph - N/A   Overcast
1:35 AM 65.5 °F 64.4 °F 96% 30.05 in 3.0 mi NNW 4.6 mph - N/A   Overcast
1:55 AM 65.3 °F 64.4 °F 97% 30.06 in 2.5 mi NNW 5.8 mph - N/A   Overcast
2:15 AM 65.3 °F 64.4 °F 97% 30.06 in 3.0 mi NNW 3.5 mph - N/A   Overcast
2:35 AM 65.3 °F 64.0 °F 96% 30.06 in 3.0 mi NNW 4.6 mph - N/A   Overcast
2:55 AM 65.1 °F 63.9 °F 96% 30.05 in 3.0 mi NNW 4.6 mph - N/A   Overcast
3:15 AM 64.9 °F 63.9 °F 96% 30.05 in 3.0 mi NNW 3.5 mph - N/A   Overcast
3:35 AM 64.9 °F 63.9 °F 96% 30.05 in 7.0 mi NNW 3.5 mph - N/A   Overcast
3:55 AM 65.1 °F 63.9 °F 96% 30.05 in 5.0 mi NNW 3.5 mph - N/A   Overcast
4:15 AM 64.9 °F 63.9 °F 96% 30.05 in 3.0 mi North 3.5 mph - N/A   Overcast
4:35 AM 65.3 °F 64.0 °F 96% 30.06 in 4.0 mi North 3.5 mph - N/A   Overcast
4:55 AM 65.3 °F 64.0 °F 96% 30.07 in 3.0 mi North 3.5 mph - N/A   Overcast
5:15 AM 65.3 °F 64.4 °F 97% 30.07 in 3.0 mi North 4.6 mph - N/A   Overcast
5:35 AM 65.3 °F 64.4 °F 97% 30.08 in 3.0 mi North 5.8 mph - N/A   Overcast
5:55 AM 65.3 °F 64.4 °F 97% 30.08 in 4.0 mi North 6.9 mph - N/A   Overcast
6:15 AM 64.9 °F 63.7 °F 96% 30.09 in 4.0 mi NNE 4.6 mph - N/A   Overcast
6:35 AM 64.9 °F 63.7 °F 96% 30.09 in 5.0 mi North 4.6 mph - N/A   Overcast
6:55 AM 64.9 °F 63.7 °F 96% 30.10 in 7.0 mi North 3.5 mph - N/A   Overcast
7:15 AM 64.9 °F 63.7 °F 96% 30.10 in 7.0 mi North 3.5 mph - N/A   Overcast
7:35 AM 64.9 °F 63.7 °F 96% 30.10 in 7.0 mi North 4.6 mph - N/A   Overcast
7:55 AM 64.9 °F 63.5 °F 95% 30.11 in 7.0 mi North 5.8 mph - N/A   Overcast
8:15 AM 64.9 °F 63.5 °F 95% 30.11 in 10.0 mi North 5.8 mph - N/A   Overcast
8:35 AM 65.3 °F 63.5 °F 94% 30.12 in 10.0 mi North 6.9 mph - N/A   Overcast
8:55 AM 65.3 °F 63.5 °F 94% 30.13 in 7.0 mi North 8.1 mph - N/A   Overcast
9:15 AM 65.3 °F 63.1 °F 93% 30.14 in 10.0 mi North 8.1 mph - N/A   Overcast
9:35 AM 65.5 °F 63.5 °F 93% 30.14 in 10.0 mi North 6.9 mph - N/A   Overcast
9:55 AM 65.7 °F 63.5 °F 93% 30.14 in 10.0 mi North 9.2 mph - N/A   Overcast
10:15 AM 66.0 °F 63.5 °F 92% 30.15 in 10.0 mi North 10.4 mph - N/A   Overcast
10:35 AM 66.6 °F 63.5 °F 90% 30.15 in 7.0 mi North 5.8 mph - N/A   Overcast
10:55 AM 66.4 °F 63.5 °F 90% 30.15 in 7.0 mi North 5.8 mph - N/A   Overcast
11:15 AM 67.1 °F 63.5 °F 88% 30.15 in 10.0 mi NNW 4.6 mph - N/A   Overcast
11:55 AM 68.0 °F 63.9 °F 87% 30.15 in 10.0 mi North 8.1 mph - N/A   Overcast
12:15 PM 68.0 °F 63.9 °F 87% 30.15 in 7.0 mi North 9.2 mph - N/A   Overcast
12:35 PM 68.9 °F 64.2 °F 85% 30.14 in 10.0 mi North 8.1 mph - N/A   Overcast
12:55 PM 68.9 °F 64.4 °F 86% 30.14 in 3.0 mi North 11.5 mph - N/A   Haze
1:15 PM 69.4 °F 64.4 °F 84% 30.13 in 10.0 mi North 8.1 mph - N/A   Overcast
1:35 PM 69.3 °F 64.4 °F 84% 30.12 in 10.0 mi North 8.1 mph - N/A   Overcast
1:55 PM 69.4 °F 64.6 °F 84% 30.12 in 10.0 mi North 8.1 mph - N/A   Overcast
2:15 PM 69.3 °F 64.6 °F 85% 30.12 in 10.0 mi NNE 5.8 mph - N/A   Overcast
2:35 PM 70.2 °F 65.3 °F 85% 30.12 in 10.0 mi North 6.9 mph - N/A   Overcast
2:55 PM 70.7 °F 65.1 °F 82% 30.11 in 10.0 mi North 11.5 mph - N/A   Overcast
3:15 PM 70.2 °F 65.3 °F 85% 30.11 in 10.0 mi North 8.1 mph - N/A   Overcast
3:35 PM 70.2 °F 65.5 °F 85% 30.11 in 10.0 mi North 8.1 mph - N/A   Overcast
3:55 PM 70.7 °F 65.3 °F 83% 30.11 in 10.0 mi NNW 8.1 mph - N/A   Overcast
4:15 PM 71.6 °F 65.5 °F 81% 30.10 in 10.0 mi NNW 10.4 mph - N/A   Mostly Cloudy
4:35 PM 71.8 °F 65.3 °F 80% 30.10 in 10.0 mi North 10.4 mph - N/A   Overcast
4:55 PM 71.6 °F 65.3 °F 80% 30.10 in 10.0 mi North 10.4 mph - N/A   Mostly Cloudy
5:15 PM 71.6 °F 65.1 °F 80% 30.10 in 10.0 mi North 11.5 mph - N/A   Overcast
5:35 PM 70.5 °F 65.3 °F 83% 30.11 in 10.0 mi NNW 8.1 mph - N/A   Overcast
5:55 PM 69.8 °F 65.3 °F 86% 30.11 in 10.0 mi NNW 9.2 mph - N/A   Overcast
6:15 PM 69.6 °F 65.5 °F 87% 30.11 in 10.0 mi NNW 5.8 mph - N/A   Mostly Cloudy
6:35 PM 69.1 °F 65.3 °F 88% 30.11 in 10.0 mi NNW 6.9 mph - N/A   Overcast
6:55 PM 68.4 °F 65.1 °F 89% 30.12 in 10.0 mi NW 5.8 mph - N/A   Mostly Cloudy
7:15 PM 68.0 °F 64.9 °F 90% 30.12 in 10.0 mi NW 4.6 mph - N/A   Mostly Cloudy
7:35 PM 68.0 °F 65.1 °F 90% 30.12 in 10.0 mi NNW 8.1 mph - N/A   Overcast
7:55 PM 68.2 °F 65.3 °F 90% 30.13 in 10.0 mi NNW 5.8 mph - N/A   Overcast
8:15 PM 68.4 °F 65.3 °F 90% 30.13 in 10.0 mi NNW 4.6 mph - N/A   Overcast
8:35 PM 68.4 °F 65.3 °F 90% 30.14 in 10.0 mi North 5.8 mph - N/A Rain Light Rain
8:55 PM 68.0 °F 64.9 °F 90% 30.13 in 10.0 mi North 6.9 mph - N/A   Overcast
9:15 PM 68.0 °F 64.9 °F 90% 30.14 in 10.0 mi North 5.8 mph - N/A   Overcast
9:35 PM 68.0 °F 64.9 °F 90% 30.14 in 10.0 mi North 5.8 mph - N/A   Overcast
9:55 PM 67.6 °F 64.9 °F 91% 30.14 in 10.0 mi North 4.6 mph - N/A   Overcast
10:15 PM 67.3 °F 65.3 °F 93% 30.15 in 10.0 mi North 5.8 mph - N/A   Overcast
10:35 PM 67.1 °F 65.3 °F 94% 30.15 in 7.0 mi North 6.9 mph - N/A   Overcast
10:55 PM 67.3 °F 65.7 °F 95% 30.15 in 10.0 mi North 5.8 mph - N/A   Overcast
11:15 PM 67.5 °F 65.8 °F 95% 30.14 in 4.0 mi North 4.6 mph - N/A Rain Heavy Rain
11:35 PM 67.5 °F 66.2 °F 96% 30.14 in 7.0 mi NE 4.6 mph - N/A   Overcast
11:55 PM 67.6 °F 66.2 °F 95% 30.14 in 7.0 mi NE 3.5 mph - N/A   Overcast